SCP
0 0 0 0 0 0 0 0 0 0 0 0 0 0 0 0 0 0 0 0 0 0 0 0 0 0 0 0 0 0 0 0 0 0 0 0 0 0 0 0 0 0 0 0 0 0 0 0 0 0 0 0 0 0
0 0 0 0 0 0 0 0 0 0 0 0 0 0 0 0 0 0 0 0 0 0 0 0 0 0 0 0 0 0 0 0 0 0 0 0 0 0 0 0 0 0 0 0 0 0 0 0 0 0 0 0 0 0
0 0 0 0 0 0 0 0 0 0 0 0 0 0 0 0 0 0 0 0 0 0 0 0 0 0 0 0 0 0 0 0 0 0 0 0 0 0 0 0 0 0 0 0 0 0 0 0 0 0 0 0 0 0
0 0 0 0 0 0 0 0 0 0 0 0 0 0 0 0 0 0 0 0 0 0 0 0 0 0 0 0 0 0 0 0 0 0 0 0 0 0 0 0 0 0 0 0 0 0 0 0 0 0 0 0 0 0
0 0 0 0 0 0 0 0 0 0 0 0 0 0 0 0 0 0 0 0 0 0 0 0 0 0 0 0 0 0 0 0 0 0 0 0 0 0 0 0 0 0 0 0 0 0 0 0 0 0 0 0 0 0
0 0 0 0 0 0 0 0 0 0 0 0 0 0 0 0 0 0 0 0 0 0 0 0 0 0 0 0 0 0 0 0 0 0 0 0 0 0 0 0 0 0 0 0 0 0 0 0 0 0 0 0 0 0
0 0 0 0 0 0 0 0 0 0 0 0 0 0 0 0 0 0 0 0 0 0 0 0 0 0 0 0 0 0 0 0 0 0 0 0 0 0 0 0 0 0 0 0 0 0 0 0 0 0 0 0 0 0
0 0 0 0 0 0 0 0 0 0 0 0 0 0 0 0 0 0 0 0 0 0 0 0 0 0 0 0 0 0 0 0 0 0 0 0 0 0 0 0 0 0 0 0 0 0 0 0 0 0 0 0 0 0
0 0 0 0 0 0 0 0 0 0 0 0 0 0 0 0 0 0 0 0 0 0 0 0 0 0 0 0 0 0 0 0 0 0 0 0 0 0 0 0 0 0 0 0 0 0 0 0 0 0 0 0 0 0
0 0 0 0 0 0 0 0 0 0 0 0 0 0 0 0 0 0 0 0 0 0 0 0 0 0 0 0 0 0 0 0 0 0 0 0 0 0 0 0 0 0 0 0 0 0 0 0 0 0 0 0 0 0
0 0 0 0 0 0 0 0 0 0 0 0 0 0 0 0 0 0 0 0 0 0 0 0 0 0 0 0 0 0 0 0 0 0 0 0 0 0 0 0 -0 0 0 0 0 0 0 0 0 0 0 0 0 0
0 0 0 0 0 0 0 0 0 0 0 0 0 0 0 0 0 0 0 0 0 0 0 0 0 0 0 0 0 0 0 0 0 0 0 0 0 0 0 -0 0 -0 -0 -0 -0 -0 -0 0 0 0 0 0 0 0
0 0 0 0 0 0 0 -0 0 0 0 0 0 0 0 0 0 0 0 0 0 0 0 0 0 0 0 0 0 0 0 0 0 0 0 0 0 0 0 0 0 -0 -0 -0 -0 0 0 0 0 0 0 0 0 0
0 0 0 0 0 0 0 0 0 0 0 0 0 0 0 0 0 0 0 0 0 0 0 0 0 0 0 0 0 0 0 0 0 0 0 0 -0 -0 0 -0 0 -0 0 0 0 0 0 0 0 0 0 0 0 0
-0 0 0 0 0 0 0 0 0 0 0 0 0 0 0 0 0 0 0 0 0 0 0 0 0 0 0 0 0 0 0 0 0 0 -0 -0 -0 -0 -0 -0 0 0 -0 0 0 0 0 0 0 0 0 0 0 0
-0 0 0 0 0 -0 0 0 0 0 0 0 0 0 0 0 0 0 0 0 0 0 0 0 0 0 0 0 0 0 0 0 0 0 0 -0 -0 -0 -0 -0 -0 0 0 0 0 0 -0 0 0 0 0 0 0 0
0 0 -0 -0 -0 0 0 0 0 0 0 0 0 0 0 0 0 0 0 0 0 0 0 0 0 0 0 0 0 0 0 0 0 -0 -0 -0 -0 -0 0 -0 0 -0 -0 -0 -0 -0 0 0 0 0 0 0 0 0
0 0 -0 -0 0 0 0 0 0 -0 0 0 0 0 0 0 0 0 0 0 0 0 0 0 0 0 0 -0 -0 -0 -0 -0 0 -0 0 -0 -0 0 0 0 -0 -0 -0 0 0 0 0 0 0 0 0 0 0 0
0 0 -0 -0 0 0 -0 -0 -0 0 0 0 0 0 0 -0 0 0 0 0 0 0 0 0 -0 -0 -0 -0 0 0 0 0 0 0 0 0 0 -0 0 -0 -0 -0 0 0 0 0 0 0 0 0 0 0 0 0
-0 -0 -0 0 0 0 0 -0 -0 -0 0 0 -0 -0 -0 -0 -0 0 0 -0 0 0 0 0 0 0 0 -0 0 -0 0 0 0 0 0 0 0 0 -0 -0 0 0 -0 -0 0 0 0 0 -0 0 0 0 0 0
-0 -0 -0 -0 -0 -0 -0 -0 -0 0 0 -0 -0 -0 -0 -0 -0 -0 0 0 0 0 0 0 0 -0 -0 0 0 0 0 0 0 0 0 0 -0 -0 0 0 0 0 0 -0 -0 0 0 0 0 -0 0 0 0 0
-0 0 -0 0 0 -0 -0 -0 -0 -0 -0 -0 -0 -0 -0 -0 0 0 0 0 0 0 0 0 0 0 0 0 0 0 -0 0 -0 -0 -0 0 0 -0 0 0 -0 0 0 0 0 0 0 0 -0 0 0 0 0 0
0 -0 -0 -0 -0 -0 -0 -0 -0 -0 -0 -0 0 0 0 0 0 0 0 0 0 0 -0 -0 -0 -0 0 0 0 0 0 0 0 0 0 -0 -0 -0 0 0 0 0 0 0 0 0 0 0 -0 -0 0 0 0 0
0 -0 -0 -0 -0 -0 -0 -0 -0 -0 0 0 0 0 0 0 0 -0 -0 0 -0 -0 -0 0 -0 0 -0 0 0 0 0 0 0 -0 -0 -0 -0 0 0 0 0 0 0 0 0 -0 0 -0 -0 -0 -0 0 0 0
-0 -0 -0 -0 -0 -0 -0 0 0 0 0 0 0 0 0 0 0 0 0 0 -0 -0 -0 -0 -0 -0 -0 0 0 0 0 0 -0 -0 -0 0 0 0 0 0 0 0 -0 -0 -0 -0 -0 -0 -0 -0 -0 0 0 0
-0 -0 -0 -0 -0 -0 -0 -0 0 0 0 0 0 0 0 -0 -0 0 0 0 0 -0 0 0 0 0 0 0 0 0 0 0 0 -0 0 0 0 0 -0 0 -0 -0 0 0 0 -0 -0 -0 -0 -0 0 0 0 0
-0 -0 -0 0 -0 -0 0 0 0 -0 0 -0 0 -0 -0 0 0 0 -0 -0 -0 0 0 0 0 -0 0 0 0 -0 0 0 0 -0 -0 0 0 0 0 -0 -0 0 -0 0 -0 -0 -0 -0 -0 -0 -0 -0 0 0
0 0 0 0 0 -0 0 0 0 0 0 0 0 0 -0 0 0 0 -0 0 0 0 0 0 0 0 0 -0 0 -0 0 0 0 0 0 0 0 0 0 0 -0 -0 -0 -0 -0 -0 -0 0 0 -0 -0 0 0 0
0 0 0 0 -0 -0 -0 0 0 0 0 0 0 0 0 0 0 0 -0 0 0 0 0 0 -0 0 -0 -0 -0 0 -0 -0 -0 -0 0 0 0 -0 0 0 -0 0 0 0 -0 0 0 0 0 0 0 0 -0 0
0 0 0 -0 -0 -0 -0 -0 0 0 -0 -0 0 0 0 0 0 0 0 0 0 0 0 -0 -0 -0 -0 -0 -0 -0 0 0 0 0 -0 -0 -0 -0 -0 -0 -0 -0 -0 -0 -0 -0 -0 -0 -0 -0 -0 -0 0 0
0 0 -0 0 0 0 -0 0 -0 0 0 0 -0 0 0 0 0 0 0 0 0 0 -0 -0 -0 -0 0 -0 0 -0 0 0 0 0 -0 -0 -0 -0 -0 -0 -0 0 -0 -0 -0 -0 -0 -0 -0 0 0 0 0 0
0 -0 -0 0 0 0 0 0 0 0 0 -0 -0 0 0 0 0 0 0 0 -0 -0 -0 -0 -0 -0 0 0 -0 -0 -0 0 -0 -0 -0 -0 0 0 0 -0 -0 0 0 0 0 0 0 0 0 0 0 0 0 0
0 0 0 0 0 -0 0 0 0 0 0 0 -0 0 0 0 0 0 0 0 0 0 0 0 -0 0 -0 0 -0 -0 0 0 0 -0 -0 -0 -0 -0 0 0 0 0 0 0 0 0 0 0 0 0 0 0 0 0
Wind_Speed_500mb
66 60 56 53 50 45 39 35 32 32 30 25 30 37 37 36 25 19 8 14 14 14 42 50 41 23 16 3 4 9 8 6 7 4 6 5 4 6 5 5 2 8 8 6 3 4 12 18 7 1 6 14 25 20
68 61 55 54 53 46 41 39 36 28 27 30 32 40 37 34 26 20 18 19 17 27 32 45 56 51 45 31 18 5 3 7 3 6 0 2 4 6 2 5 9 1 10 7 11 9 3 13 5 8 10 5 15 24
76 72 57 55 54 46 44 47 42 30 29 32 37 39 36 31 24 22 22 19 23 28 45 15 12 3 31 40 31 10 2 2 4 4 8 4 3 5 2 8 4 10 8 6 5 9 7 10 8 8 11 17 16 11
77 76 64 58 56 51 51 45 36 31 33 38 40 34 30 25 21 21 20 14 10 11 10 14 1 9 6 22 29 22 20 8 2 3 2 5 4 9 6 8 5 11 4 5 7 17 17 15 21 19 21 18 13 7
80 79 76 67 59 53 46 42 38 35 39 42 36 28 25 20 18 18 19 16 16 10 8 30 54 24 18 30 28 28 20 14 8 3 2 5 8 0 8 3 8 15 12 5 10 25 13 15 24 27 33 24 15 8
78 79 74 68 59 52 45 43 39 41 40 38 27 19 16 17 14 10 7 11 23 20 9 7 16 17 11 31 29 27 25 19 12 9 8 10 17 8 2 5 16 14 10 21 14 15 13 9 19 26 24 18 11 5
76 75 73 63 58 55 51 46 45 46 38 27 23 21 20 19 16 13 6 5 14 13 7 12 17 10 13 36 28 27 27 19 16 8 11 14 24 11 3 12 26 46 54 43 30 22 12 25 18 18 20 18 9 4
72 75 69 66 58 55 51 47 42 37 27 23 20 22 22 18 19 22 15 18 19 10 8 2 10 12 28 13 14 27 17 15 11 13 7 7 5 12 8 23 35 36 36 30 26 33 25 16 23 22 16 9 5 8
70 79 72 64 60 55 56 48 38 32 27 23 24 20 16 16 11 9 6 20 20 13 5 5 4 6 11 2 7 14 13 1 11 11 11 11 6 9 14 29 36 28 9 13 25 20 11 13 21 21 14 8 7 9
63 64 69 56 60 61 52 43 31 25 31 33 29 14 10 10 12 17 12 10 10 10 10 9 10 6 11 1 7 5 7 6 2 10 10 6 8 48 49 45 31 23 19 12 13 14 21 18 22 17 5 9 15 5
64 62 59 65 61 54 42 33 39 45 43 38 17 10 11 21 14 7 6 8 10 6 12 14 23 10 11 6 8 11 4 5 3 9 8 4 6 15 29 32 46 54 29 19 8 14 13 21 17 11 6 6 6 10
60 64 62 57 52 39 39 49 54 52 39 24 16 21 21 10 7 4 6 6 9 8 12 11 15 21 7 7 5 2 4 3 11 4 4 6 7 16 15 14 9 28 27 22 19 24 26 17 11 7 8 8 9 14
63 59 55 45 37 46 57 57 58 49 38 28 10 11 9 9 3 8 9 7 5 8 4 6 5 3 6 4 6 5 4 9 10 3 6 8 7 19 12 17 20 27 21 12 27 24 13 15 14 12 10 5 10 11
55 44 43 52 61 63 61 60 52 48 35 9 11 1 8 7 9 9 8 6 11 10 6 9 14 1 2 4 6 3 8 4 6 4 6 5 8 11 10 10 19 25 38 34 26 22 16 11 8 7 9 8 8 15
60 64 63 63 64 58 59 60 47 45 9 8 9 7 10 22 19 20 22 8 5 10 9 8 2 6 2 3 6 1 5 6 7 6 6 7 4 1 6 11 18 26 24 18 20 16 13 10 7 10 7 5 7 16
65 66 61 56 54 53 50 53 41 17 5 4 8 5 15 4 9 8 8 10 10 13 10 5 4 4 5 6 6 10 6 7 7 10 31 1 6 9 6 21 17 21 19 16 19 24 15 13 8 10 5 5 4 12
63 65 52 49 46 45 46 49 27 7 3 6 10 17 18 2 13 8 6 5 11 8 4 7 5 10 7 5 1 4 1 6 31 56 33 10 11 14 17 23 16 18 18 21 25 17 15 14 11 5 5 9 2 6
52 57 53 53 56 59 47 26 8 7 8 14 10 12 9 8 3 15 7 11 9 6 8 6 8 2 6 4 2 6 18 31 36 30 18 5 5 13 33 17 19 17 19 20 20 19 18 14 10 9 8 13 8 1
61 62 62 64 57 36 11 12 4 4 10 7 5 8 8 3 9 7 11 10 6 12 9 7 1 4 6 7 4 20 19 16 28 28 20 12 11 17 23 24 16 18 18 20 17 17 18 13 9 9 12 10 11 7
64 68 65 52 35 11 9 8 9 5 4 3 14 6 4 8 9 7 7 14 16 8 4 4 10 9 11 16 19 31 29 22 31 23 7 13 30 23 25 18 19 24 25 26 20 19 17 14 15 11 9 12 11 5
62 58 44 24 14 7 7 8 6 3 7 7 13 27 3 2 8 8 4 23 16 7 10 16 20 23 22 14 8 13 17 15 22 10 20 19 22 24 22 19 28 23 21 22 20 17 17 15 17 5 8 13 6 8
47 38 24 11 6 6 4 4 3 2 4 9 13 14 6 4 4 8 12 16 11 34 24 12 14 10 15 16 14 11 7 7 3 21 16 20 26 26 21 25 28 21 22 17 13 12 15 13 13 13 8 10 9 8
33 23 11 4 4 3 7 9 4 4 0 6 9 7 6 3 4 2 6 12 7 2 8 8 11 12 10 11 12 13 11 18 19 20 18 28 21 17 24 22 17 21 21 17 9 7 15 16 15 11 9 5 6 9
18 6 4 4 6 5 10 7 6 5 6 4 3 4 4 5 12 3 2 5 10 6 7 12 14 14 12 18 19 12 2 7 23 30 27 22 26 25 18 24 22 21 14 12 8 10 12 11 7 5 7 6 21 13
4 4 6 6 8 6 8 10 8 5 4 5 2 4 3 4 2 3 2 6 13 12 15 18 13 11 6 9 9 12 14 21 31 35 27 33 27 29 23 18 16 20 19 19 14 11 13 13 9 8 6 7 17 17
2 12 14 16 10 6 4 0 9 9 7 4 6 2 2 3 2 3 3 10 13 18 18 14 8 7 2 12 22 20 20 20 19 26 25 22 25 24 28 23 22 20 15 15 12 18 10 7 7 10 12 12 20 18
4 9 9 9 7 6 5 5 7 1 6 9 7 10 5 2 2 4 4 16 19 21 15 6 6 13 31 19 19 14 22 24 19 27 25 22 19 22 21 14 18 21 14 13 14 9 11 14 4 4 5 6 11 16
10 2 10 12 9 13 5 5 4 3 2 5 5 5 2 3 2 2 4 12 13 10 10 15 22 37 18 24 28 33 42 32 24 26 28 24 20 19 18 17 14 15 15 13 13 13 12 14 9 5 10 12 14 11
8 9 9 9 12 10 10 4 3 5 7 6 3 4 4 6 3 9 12 9 4 5 15 25 20 9 11 16 19 27 24 24 24 20 21 27 24 15 5 17 15 14 15 14 14 14 4 18 13 10 8 5 14 17
9 20 8 6 7 3 9 2 8 4 6 8 8 11 10 9 7 5 1 7 14 26 13 18 16 14 23 22 31 25 16 12 16 12 15 16 16 11 13 22 13 10 11 10 12 11 8 9 6 4 4 5 10 20
4 18 11 11 2 6 20 15 9 11 9 11 10 17 14 8 9 10 6 14 15 9 13 11 15 20 12 19 22 23 23 19 11 10 10 10 11 9 7 8 9 13 14 7 6 7 10 6 1 5 16 11 17 13
4 10 23 8 8 4 1 3 6 9 7 9 10 11 9 5 5 4 18 13 19 21 26 30 28 20 14 18 18 14 17 15 15 25 18 14 17 7 2 14 12 11 7 12 12 8 5 7 5 7 10 6 2 13
2 10 18 22 10 7 13 7 4 7 8 7 3 4 5 3 2 4 12 18 24 24 26 26 23 16 15 15 15 13 10 11 16 18 18 13 10 7 11 16 11 10 14 7 4 16 17 7 8 7 11 7 4 9
Wind_Direction_500mb
243 245 250 255 259 260 261 266 266 275 282 288 304 307 311 311 296 284 264 242 265 261 276 280 267 281 306 9 124 322 1 348 45 101 153 253 210 267 312 302 275 184 149 207 105 144 279 354 328 206 243 127 134 126
240 241 245 251 255 254 252 257 258 266 266 285 297 304 304 301 277 266 248 245 264 267 267 284 278 260 249 244 268 284 246 286 206 93 109 88 335 342 71 282 342 255 175 183 175 227 276 335 78 95 80 176 139 124
239 236 239 249 250 249 255 263 264 256 270 278 288 293 296 288 261 260 267 263 283 296 303 294 340 345 237 236 225 254 235 182 121 80 162 177 239 125 249 257 312 333 168 186 76 259 213 301 233 117 200 172 131 122
235 233 231 235 245 249 253 247 247 250 267 277 283 284 286 271 249 258 256 245 258 297 284 279 35 212 195 206 212 231 239 242 351 280 169 148 159 191 231 245 183 239 319 238 251 283 287 215 204 187 151 156 157 154
225 229 231 230 235 239 238 239 233 250 268 271 271 272 268 246 245 253 263 244 228 258 279 293 300 246 249 206 204 216 221 221 250 229 117 226 218 122 265 295 249 219 212 167 238 258 230 261 176 167 163 163 155 152
224 221 225 228 229 239 237 230 235 252 259 260 253 252 248 233 238 235 247 233 218 221 282 299 306 293 273 199 207 212 221 224 221 190 223 234 226 216 210 244 253 269 232 312 290 305 270 232 202 174 160 141 129 150
226 215 220 223 230 228 224 225 239 249 249 237 226 226 216 217 223 209 218 194 198 213 254 295 302 301 226 190 193 208 219 221 230 242 227 229 252 252 205 248 256 271 281 282 278 259 185 166 168 150 136 131 139 79
216 210 214 223 225 217 222 229 239 232 222 212 227 216 210 218 230 253 248 219 192 213 255 269 273 304 186 175 186 213 208 225 229 222 222 223 242 212 250 242 263 273 290 290 265 231 238 185 161 150 159 193 279 346
208 209 208 214 214 215 224 223 213 199 198 198 192 191 192 221 235 218 196 178 210 230 263 249 255 272 359 53 173 189 205 197 241 202 220 189 214 228 235 245 251 258 263 155 128 141 156 192 161 159 169 136 50 19
200 199 204 207 207 219 211 195 193 182 185 175 167 171 197 182 148 160 164 181 207 211 235 245 247 270 356 189 15 344 219 215 258 236 177 189 248 251 255 252 246 241 218 225 182 143 147 161 170 179 169 5 331 353
200 190 194 204 209 195 186 176 169 175 163 164 173 168 158 153 164 180 190 183 199 242 222 238 224 218 228 180 209 195 254 224 243 264 156 253 276 257 289 270 253 241 219 205 177 150 165 173 172 143 70 50 47 350
181 192 197 190 183 178 171 174 173 168 160 157 136 131 148 177 186 185 207 206 191 227 206 207 232 210 221 177 157 227 225 337 247 188 135 269 255 351 33 34 228 181 166 120 137 143 148 130 78 79 110 58 10 332
182 181 173 170 175 170 172 163 162 160 149 148 152 154 176 170 124 201 206 228 197 214 56 60 346 158 151 162 91 59 275 241 308 36 219 228 14 50 51 18 139 133 124 129 151 160 156 129 82 73 106 25 348 353
155 157 160 159 163 159 155 158 158 159 151 152 162 5 166 217 225 202 210 202 289 201 134 61 276 223 110 82 139 147 242 316 324 291 247 280 138 102 64 2 200 146 145 156 161 156 143 124 119 130 103 47 30 353
146 147 149 154 155 157 156 161 159 164 147 163 184 203 215 231 242 281 246 255 129 152 178 164 168 186 185 214 210 296 273 274 216 241 250 251 216 288 115 145 149 149 157 165 160 171 163 151 122 120 109 103 358 0
140 142 146 151 153 154 157 164 165 161 166 224 234 242 253 170 259 242 127 141 161 153 133 120 92 64 200 227 183 221 169 224 267 314 317 337 335 331 270 184 173 176 160 154 165 165 165 163 134 148 137 185 317 8
149 139 149 152 155 157 155 150 144 161 216 244 234 252 260 229 112 126 109 127 159 145 142 116 103 203 305 269 228 45 184 222 294 305 301 271 313 338 172 160 150 143 139 142 153 157 148 142 129 142 173 199 205 34
143 140 143 144 141 135 138 143 136 191 239 247 268 288 309 336 55 159 149 164 157 166 168 194 139 173 222 235 270 229 244 298 296 308 305 252 24 159 148 148 146 146 145 151 164 155 154 160 164 175 182 190 213 216
133 133 134 135 137 127 127 181 189 256 245 306 298 310 222 237 245 251 183 172 170 183 166 138 103 231 244 213 237 343 332 295 302 328 310 223 209 158 147 146 150 146 147 146 145 148 145 150 176 164 149 165 211 192
132 134 137 136 132 113 124 147 192 251 282 329 291 271 276 223 216 205 151 173 181 153 150 183 215 240 238 263 272 289 296 315 317 331 320 186 159 166 150 159 153 144 138 143 134 118 84 113 141 124 168 187 170 149
135 137 139 127 100 98 128 151 161 216 316 307 351 329 267 296 211 236 196 181 188 211 222 224 227 272 308 334 311 278 278 287 291 252 152 157 175 172 151 158 149 147 138 142 141 142 131 106 147 142 131 180 168 61
138 144 136 106 93 88 86 151 81 8 302 297 329 336 279 252 230 240 241 215 231 240 247 247 295 275 292 273 278 258 291 281 168 137 171 152 146 156 145 161 168 169 177 159 160 163 142 140 116 123 133 102 71 94
135 130 107 101 121 141 130 147 171 176 312 304 335 333 272 266 227 246 239 223 196 154 290 297 299 283 275 250 253 280 281 227 209 191 165 164 160 164 149 147 171 171 156 157 133 141 155 130 90 85 143 210 191 128
128 103 105 166 196 199 155 176 172 206 216 237 195 255 277 343 325 269 7 67 41 347 357 334 328 317 289 270 256 239 137 129 150 154 159 171 161 162 161 155 167 166 179 164 162 151 144 159 128 168 153 115 172 165
80 170 172 228 217 216 207 167 195 181 229 198 233 318 347 344 325 37 68 5 2 2 354 339 342 342 18 65 109 144 144 141 148 156 154 165 155 145 144 141 156 160 156 143 145 160 143 144 138 115 160 67 160 185
257 203 197 198 190 211 243 220 181 186 161 196 219 174 85 34 34 265 316 356 3 354 344 345 0 1 24 88 99 109 127 144 148 157 166 179 176 166 156 156 154 160 168 158 145 151 149 138 139 101 138 93 154 162
276 217 208 214 185 141 216 235 279 197 201 198 170 173 153 155 181 139 125 18 1 353 357 49 108 125 127 100 60 78 166 137 141 160 179 186 200 192 184 167 160 153 167 165 165 167 157 153 128 165 138 202 209 194
261 246 168 185 190 201 197 183 211 231 290 47 157 169 178 106 120 86 1 346 336 342 83 102 131 133 96 72 82 99 126 133 138 140 148 142 139 152 159 160 157 152 170 175 168 168 174 165 125 142 144 119 142 166
253 205 165 202 210 203 215 214 87 62 15 13 47 75 59 72 75 304 318 321 271 129 127 134 134 142 56 76 132 148 150 133 145 145 136 141 149 147 159 174 174 192 205 185 181 198 181 167 167 142 166 179 208 218
220 185 191 25 341 159 226 252 136 127 91 80 118 120 110 112 44 340 317 130 124 140 112 144 150 139 123 105 122 126 125 167 166 148 142 158 157 153 141 154 156 133 101 164 209 206 186 192 182 288 190 236 259 228
226 163 69 39 287 346 39 57 116 106 74 76 111 133 121 125 59 51 101 132 143 119 103 137 171 166 141 140 137 129 120 119 138 184 177 146 133 143 155 194 226 203 193 170 121 143 133 141 333 328 332 260 264 264
239 148 137 166 223 249 176 87 75 73 68 80 76 99 94 78 32 68 98 131 137 102 90 102 116 131 131 152 160 125 119 111 124 147 145 152 149 70 183 163 153 152 199 237 245 273 261 231 266 259 275 335 7 247
236 5 105 134 154 179 161 109 99 112 106 101 104 129 110 112 59 80 94 126 140 106 107 113 113 117 115 111 123 126 138 147 141 149 169 180 195 175 124 153 147 121 172 214 139 191 218 218 216 220 220 143 304 224
Wind_Speed_850mb
66 60 56 53 50 45 39 35 32 32 30 25 30 37 37 36 25 19 8 14 14 14 42 50 41 23 16 3 4 9 8 6 7 4 6 5 4 6 5 5 2 8 8 6 3 4 12 18 7 1 6 14 25 20
68 61 55 54 53 46 41 39 36 28 27 30 32 40 37 34 26 20 18 19 17 27 32 45 56 51 45 31 18 5 3 7 3 6 0 2 4 6 2 5 9 1 10 7 11 9 3 13 5 8 10 5 15 24
76 72 57 55 54 46 44 47 42 30 29 32 37 39 36 31 24 22 22 19 23 28 45 15 12 3 31 40 31 10 2 2 4 4 8 4 3 5 2 8 4 10 8 6 5 9 7 10 8 8 11 17 16 11
77 76 64 58 56 51 51 45 36 31 33 38 40 34 30 25 21 21 20 14 10 11 10 14 1 9 6 22 29 22 20 8 2 3 2 5 4 9 6 8 5 11 4 5 7 17 17 15 21 19 21 18 13 7
80 79 76 67 59 53 46 42 38 35 39 42 36 28 25 20 18 18 19 16 16 10 8 30 54 24 18 30 28 28 20 14 8 3 2 5 8 0 8 3 8 15 12 5 10 25 13 15 24 27 33 24 15 8
78 79 74 68 59 52 45 43 39 41 40 38 27 19 16 17 14 10 7 11 23 20 9 7 16 17 11 31 29 27 25 19 12 9 8 10 17 8 2 5 16 14 10 21 14 15 13 9 19 26 24 18 11 5
76 75 73 63 58 55 51 46 45 46 38 27 23 21 20 19 16 13 6 5 14 13 7 12 17 10 13 36 28 27 27 19 16 8 11 14 24 11 3 12 26 46 54 43 30 22 12 25 18 18 20 18 9 4
72 75 69 66 58 55 51 47 42 37 27 23 20 22 22 18 19 22 15 18 19 10 8 2 10 12 28 13 14 27 17 15 11 13 7 7 5 12 8 23 35 36 36 30 26 33 25 16 23 22 16 9 5 8
70 79 72 64 60 55 56 48 38 32 27 23 24 20 16 16 11 9 6 20 20 13 5 5 4 6 11 2 7 14 13 1 11 11 11 11 6 9 14 29 36 28 9 13 25 20 11 13 21 21 14 8 7 9
63 64 69 56 60 61 52 43 31 25 31 33 29 14 10 10 12 17 12 10 10 10 10 9 10 6 11 1 7 5 7 6 2 10 10 6 8 48 49 45 31 23 19 12 13 14 21 18 22 17 5 9 15 5
64 62 59 65 61 54 42 33 39 45 43 38 17 10 11 21 14 7 6 8 10 6 12 14 23 10 11 6 8 11 4 5 3 9 8 4 6 15 29 32 46 54 29 19 8 14 13 21 17 11 6 6 6 10
60 64 62 57 52 39 39 49 54 52 39 24 16 21 21 10 7 4 6 6 9 8 12 11 15 21 7 7 5 2 4 3 11 4 4 6 7 16 15 14 9 28 27 22 19 24 26 17 11 7 8 8 9 14
63 59 55 45 37 46 57 57 58 49 38 28 10 11 9 9 3 8 9 7 5 8 4 6 5 3 6 4 6 5 4 9 10 3 6 8 7 19 12 17 20 27 21 12 27 24 13 15 14 12 10 5 10 11
55 44 43 52 61 63 61 60 52 48 35 9 11 1 8 7 9 9 8 6 11 10 6 9 14 1 2 4 6 3 8 4 6 4 6 5 8 11 10 10 19 25 38 34 26 22 16 11 8 7 9 8 8 15
60 64 63 63 64 58 59 60 47 45 9 8 9 7 10 22 19 20 22 8 5 10 9 8 2 6 2 3 6 1 5 6 7 6 6 7 4 1 6 11 18 26 24 18 20 16 13 10 7 10 7 5 7 16
65 66 61 56 54 53 50 53 41 17 5 4 8 5 15 4 9 8 8 10 10 13 10 5 4 4 5 6 6 10 6 7 7 10 31 1 6 9 6 21 17 21 19 16 19 24 15 13 8 10 5 5 4 12
63 65 52 49 46 45 46 49 27 7 3 6 10 17 18 2 13 8 6 5 11 8 4 7 5 10 7 5 1 4 1 6 31 56 33 10 11 14 17 23 16 18 18 21 25 17 15 14 11 5 5 9 2 6
52 57 53 53 56 59 47 26 8 7 8 14 10 12 9 8 3 15 7 11 9 6 8 6 8 2 6 4 2 6 18 31 36 30 18 5 5 13 33 17 19 17 19 20 20 19 18 14 10 9 8 13 8 1
61 62 62 64 57 36 11 12 4 4 10 7 5 8 8 3 9 7 11 10 6 12 9 7 1 4 6 7 4 20 19 16 28 28 20 12 11 17 23 24 16 18 18 20 17 17 18 13 9 9 12 10 11 7
64 68 65 52 35 11 9 8 9 5 4 3 14 6 4 8 9 7 7 14 16 8 4 4 10 9 11 16 19 31 29 22 31 23 7 13 30 23 25 18 19 24 25 26 20 19 17 14 15 11 9 12 11 5
62 58 44 24 14 7 7 8 6 3 7 7 13 27 3 2 8 8 4 23 16 7 10 16 20 23 22 14 8 13 17 15 22 10 20 19 22 24 22 19 28 23 21 22 20 17 17 15 17 5 8 13 6 8
47 38 24 11 6 6 4 4 3 2 4 9 13 14 6 4 4 8 12 16 11 34 24 12 14 10 15 16 14 11 7 7 3 21 16 20 26 26 21 25 28 21 22 17 13 12 15 13 13 13 8 10 9 8
33 23 11 4 4 3 7 9 4 4 0 6 9 7 6 3 4 2 6 12 7 2 8 8 11 12 10 11 12 13 11 18 19 20 18 28 21 17 24 22 17 21 21 17 9 7 15 16 15 11 9 5 6 9
18 6 4 4 6 5 10 7 6 5 6 4 3 4 4 5 12 3 2 5 10 6 7 12 14 14 12 18 19 12 2 7 23 30 27 22 26 25 18 24 22 21 14 12 8 10 12 11 7 5 7 6 21 13
4 4 6 6 8 6 8 10 8 5 4 5 2 4 3 4 2 3 2 6 13 12 15 18 13 11 6 9 9 12 14 21 31 35 27 33 27 29 23 18 16 20 19 19 14 11 13 13 9 8 6 7 17 17
2 12 14 16 10 6 4 0 9 9 7 4 6 2 2 3 2 3 3 10 13 18 18 14 8 7 2 12 22 20 20 20 19 26 25 22 25 24 28 23 22 20 15 15 12 18 10 7 7 10 12 12 20 18
4 9 9 9 7 6 5 5 7 1 6 9 7 10 5 2 2 4 4 16 19 21 15 6 6 13 31 19 19 14 22 24 19 27 25 22 19 22 21 14 18 21 14 13 14 9 11 14 4 4 5 6 11 16
10 2 10 12 9 13 5 5 4 3 2 5 5 5 2 3 2 2 4 12 13 10 10 15 22 37 18 24 28 33 42 32 24 26 28 24 20 19 18 17 14 15 15 13 13 13 12 14 9 5 10 12 14 11
8 9 9 9 12 10 10 4 3 5 7 6 3 4 4 6 3 9 12 9 4 5 15 25 20 9 11 16 19 27 24 24 24 20 21 27 24 15 5 17 15 14 15 14 14 14 4 18 13 10 8 5 14 17
9 20 8 6 7 3 9 2 8 4 6 8 8 11 10 9 7 5 1 7 14 26 13 18 16 14 23 22 31 25 16 12 16 12 15 16 16 11 13 22 13 10 11 10 12 11 8 9 6 4 4 5 10 20
4 18 11 11 2 6 20 15 9 11 9 11 10 17 14 8 9 10 6 14 15 9 13 11 15 20 12 19 22 23 23 19 11 10 10 10 11 9 7 8 9 13 14 7 6 7 10 6 1 5 16 11 17 13
4 10 23 8 8 4 1 3 6 9 7 9 10 11 9 5 5 4 18 13 19 21 26 30 28 20 14 18 18 14 17 15 15 25 18 14 17 7 2 14 12 11 7 12 12 8 5 7 5 7 10 6 2 13
2 10 18 22 10 7 13 7 4 7 8 7 3 4 5 3 2 4 12 18 24 24 26 26 23 16 15 15 15 13 10 11 16 18 18 13 10 7 11 16 11 10 14 7 4 16 17 7 8 7 11 7 4 9
Wind_Direction_850mb
243 245 250 255 259 260 261 266 266 275 282 288 304 307 311 311 296 284 264 242 265 261 276 280 267 281 306 9 124 322 1 348 45 101 153 253 210 267 312 302 275 184 149 207 105 144 279 354 328 206 243 127 134 126
240 241 245 251 255 254 252 257 258 266 266 285 297 304 304 301 277 266 248 245 264 267 267 284 278 260 249 244 268 284 246 286 206 93 109 88 335 342 71 282 342 255 175 183 175 227 276 335 78 95 80 176 139 124
239 236 239 249 250 249 255 263 264 256 270 278 288 293 296 288 261 260 267 263 283 296 303 294 340 345 237 236 225 254 235 182 121 80 162 177 239 125 249 257 312 333 168 186 76 259 213 301 233 117 200 172 131 122
235 233 231 235 245 249 253 247 247 250 267 277 283 284 286 271 249 258 256 245 258 297 284 279 35 212 195 206 212 231 239 242 351 280 169 148 159 191 231 245 183 239 319 238 251 283 287 215 204 187 151 156 157 154
225 229 231 230 235 239 238 239 233 250 268 271 271 272 268 246 245 253 263 244 228 258 279 293 300 246 249 206 204 216 221 221 250 229 117 226 218 122 265 295 249 219 212 167 238 258 230 261 176 167 163 163 155 152
224 221 225 228 229 239 237 230 235 252 259 260 253 252 248 233 238 235 247 233 218 221 282 299 306 293 273 199 207 212 221 224 221 190 223 234 226 216 210 244 253 269 232 312 290 305 270 232 202 174 160 141 129 150
226 215 220 223 230 228 224 225 239 249 249 237 226 226 216 217 223 209 218 194 198 213 254 295 302 301 226 190 193 208 219 221 230 242 227 229 252 252 205 248 256 271 281 282 278 259 185 166 168 150 136 131 139 79
216 210 214 223 225 217 222 229 239 232 222 212 227 216 210 218 230 253 248 219 192 213 255 269 273 304 186 175 186 213 208 225 229 222 222 223 242 212 250 242 263 273 290 290 265 231 238 185 161 150 159 193 279 346
208 209 208 214 214 215 224 223 213 199 198 198 192 191 192 221 235 218 196 178 210 230 263 249 255 272 359 53 173 189 205 197 241 202 220 189 214 228 235 245 251 258 263 155 128 141 156 192 161 159 169 136 50 19
200 199 204 207 207 219 211 195 193 182 185 175 167 171 197 182 148 160 164 181 207 211 235 245 247 270 356 189 15 344 219 215 258 236 177 189 248 251 255 252 246 241 218 225 182 143 147 161 170 179 169 5 331 353
200 190 194 204 209 195 186 176 169 175 163 164 173 168 158 153 164 180 190 183 199 242 222 238 224 218 228 180 209 195 254 224 243 264 156 253 276 257 289 270 253 241 219 205 177 150 165 173 172 143 70 50 47 350
181 192 197 190 183 178 171 174 173 168 160 157 136 131 148 177 186 185 207 206 191 227 206 207 232 210 221 177 157 227 225 337 247 188 135 269 255 351 33 34 228 181 166 120 137 143 148 130 78 79 110 58 10 332
182 181 173 170 175 170 172 163 162 160 149 148 152 154 176 170 124 201 206 228 197 214 56 60 346 158 151 162 91 59 275 241 308 36 219 228 14 50 51 18 139 133 124 129 151 160 156 129 82 73 106 25 348 353
155 157 160 159 163 159 155 158 158 159 151 152 162 5 166 217 225 202 210 202 289 201 134 61 276 223 110 82 139 147 242 316 324 291 247 280 138 102 64 2 200 146 145 156 161 156 143 124 119 130 103 47 30 353
146 147 149 154 155 157 156 161 159 164 147 163 184 203 215 231 242 281 246 255 129 152 178 164 168 186 185 214 210 296 273 274 216 241 250 251 216 288 115 145 149 149 157 165 160 171 163 151 122 120 109 103 358 0
140 142 146 151 153 154 157 164 165 161 166 224 234 242 253 170 259 242 127 141 161 153 133 120 92 64 200 227 183 221 169 224 267 314 317 337 335 331 270 184 173 176 160 154 165 165 165 163 134 148 137 185 317 8
149 139 149 152 155 157 155 150 144 161 216 244 234 252 260 229 112 126 109 127 159 145 142 116 103 203 305 269 228 45 184 222 294 305 301 271 313 338 172 160 150 143 139 142 153 157 148 142 129 142 173 199 205 34
143 140 143 144 141 135 138 143 136 191 239 247 268 288 309 336 55 159 149 164 157 166 168 194 139 173 222 235 270 229 244 298 296 308 305 252 24 159 148 148 146 146 145 151 164 155 154 160 164 175 182 190 213 216
133 133 134 135 137 127 127 181 189 256 245 306 298 310 222 237 245 251 183 172 170 183 166 138 103 231 244 213 237 343 332 295 302 328 310 223 209 158 147 146 150 146 147 146 145 148 145 150 176 164 149 165 211 192
132 134 137 136 132 113 124 147 192 251 282 329 291 271 276 223 216 205 151 173 181 153 150 183 215 240 238 263 272 289 296 315 317 331 320 186 159 166 150 159 153 144 138 143 134 118 84 113 141 124 168 187 170 149
135 137 139 127 100 98 128 151 161 216 316 307 351 329 267 296 211 236 196 181 188 211 222 224 227 272 308 334 311 278 278 287 291 252 152 157 175 172 151 158 149 147 138 142 141 142 131 106 147 142 131 180 168 61
138 144 136 106 93 88 86 151 81 8 302 297 329 336 279 252 230 240 241 215 231 240 247 247 295 275 292 273 278 258 291 281 168 137 171 152 146 156 145 161 168 169 177 159 160 163 142 140 116 123 133 102 71 94
135 130 107 101 121 141 130 147 171 176 312 304 335 333 272 266 227 246 239 223 196 154 290 297 299 283 275 250 253 280 281 227 209 191 165 164 160 164 149 147 171 171 156 157 133 141 155 130 90 85 143 210 191 128
128 103 105 166 196 199 155 176 172 206 216 237 195 255 277 343 325 269 7 67 41 347 357 334 328 317 289 270 256 239 137 129 150 154 159 171 161 162 161 155 167 166 179 164 162 151 144 159 128 168 153 115 172 165
80 170 172 228 217 216 207 167 195 181 229 198 233 318 347 344 325 37 68 5 2 2 354 339 342 342 18 65 109 144 144 141 148 156 154 165 155 145 144 141 156 160 156 143 145 160 143 144 138 115 160 67 160 185
257 203 197 198 190 211 243 220 181 186 161 196 219 174 85 34 34 265 316 356 3 354 344 345 0 1 24 88 99 109 127 144 148 157 166 179 176 166 156 156 154 160 168 158 145 151 149 138 139 101 138 93 154 162
276 217 208 214 185 141 216 235 279 197 201 198 170 173 153 155 181 139 125 18 1 353 357 49 108 125 127 100 60 78 166 137 141 160 179 186 200 192 184 167 160 153 167 165 165 167 157 153 128 165 138 202 209 194
261 246 168 185 190 201 197 183 211 231 290 47 157 169 178 106 120 86 1 346 336 342 83 102 131 133 96 72 82 99 126 133 138 140 148 142 139 152 159 160 157 152 170 175 168 168 174 165 125 142 144 119 142 166
253 205 165 202 210 203 215 214 87 62 15 13 47 75 59 72 75 304 318 321 271 129 127 134 134 142 56 76 132 148 150 133 145 145 136 141 149 147 159 174 174 192 205 185 181 198 181 167 167 142 166 179 208 218
220 185 191 25 341 159 226 252 136 127 91 80 118 120 110 112 44 340 317 130 124 140 112 144 150 139 123 105 122 126 125 167 166 148 142 158 157 153 141 154 156 133 101 164 209 206 186 192 182 288 190 236 259 228
226 163 69 39 287 346 39 57 116 106 74 76 111 133 121 125 59 51 101 132 143 119 103 137 171 166 141 140 137 129 120 119 138 184 177 146 133 143 155 194 226 203 193 170 121 143 133 141 333 328 332 260 264 264
239 148 137 166 223 249 176 87 75 73 68 80 76 99 94 78 32 68 98 131 137 102 90 102 116 131 131 152 160 125 119 111 124 147 145 152 149 70 183 163 153 152 199 237 245 273 261 231 266 259 275 335 7 247
236 5 105 134 154 179 161 109 99 112 106 101 104 129 110 112 59 80 94 126 140 106 107 113 113 117 115 111 123 126 138 147 141 149 169 180 195 175 124 153 147 121 172 214 139 191 218 218 216 220 220 143 304 224